Location: Chimay
(50.0486°N, 4.3171°E)
Time: 09:41:36
(UTC+00:00)

Cosmos 2219 Rocket - Pass Details

Date: 08 August 2020
Orbit: 826 x 848 km, 71.0° (Epoch: 20 September)

Event Time Altitude Azimuth Distance (km) Brightness Sun altitude
Rises 23:29:24 0° 330° (NNW) 3,416 6.4 -24.0°
Reaches altitude 10° 23:31:51 10° 331° (NNW) 2,479 5.5 -24.1°
Maximum altitude 23:37:34 89° 59° (ENE) 855 2.1 -24.1°
Enters shadow 23:38:46 58° 151° (SSE) 984 2.2 -24.1°
